Location: El Centro
(32.7920°N, 115.5620°W)
Time: 21:52:32
(UTC-07:00)

Amateur Radio Satellites - All Passes

Search period start: 29 May 2016 21:22
Search period end: 30 May 2016 21:22
Location: El Centro, 32.7920°N, 115.5620°W

Satellite Date Start Highest point End Downlink Frequencies (MHz)
Time Altitude Azimuth
Cosmos 2499 29 May 21:26:59 21:33:12 32° 86° (E) 21:39:45 435.465 / 435.565
PHONESAT 2.4 29 May 21:35:09 21:38:07 37° 341° (NNW) 21:41:03 2401.200-2431.200
FUNcube-1 29 May 21:38:07 21:42:19 65° 259° (W) 21:46:27 145.935
SEEDS 29 May 21:38:38 21:39:43 11° 268° (W) 21:40:49 437.485
UWE-3 29 May 21:41:24 21:45:21 35° 262° (W) 21:49:14 435.000/436.395/437.385
HO-68 29 May 21:49:07 21:52:55 15° 267° (W) 21:56:44 435.675
AIST 2 29 May 22:05:25 22:09:18 37° 58° (ENE) 22:13:09 435.215
Oscar 11 29 May 22:19:48 22:22:40 17° 265° (W) 22:25:33 145.826/435.025
HUMSAT D 29 May 22:23:41 22:27:45 82° 257° (WSW) 22:31:51 437.325/437.525
PRISM 29 May 22:23:44 22:25:12 12° 294° (WNW) 22:26:38 437.425
DELFI C3 29 May 22:26:31 22:29:56 28° 263° (W) 22:33:24 145.870
RS-15 29 May 22:30:44 22:33:53 11° 10° (N) 22:37:01 29.354- 29.394
UNISAT 6 29 May 22:30:50 22:34:46 33° 98° (E) 22:38:46 437.425
TIGRISAT 29 May 22:37:25 22:41:26 37° 99° (E) 22:45:31 435.000
CUSAT 1 29 May 22:39:37 22:47:01 82° 83° (E) 22:52:48 437.405
ZACube-1 29 May 22:40:53 22:42:04 11° 267° (W) 22:43:15 437.345
CUBEBUG 1 29 May 22:43:22 22:46:21 18° 69° (ENE) 22:49:20 437.445
DX 1 29 May 22:43:36 22:46:00 15° 67° (ENE) 22:48:23 434.975-435.025
ESTCUBE 1 29 May 22:44:57 22:48:48 28° 71° (ENE) 22:52:39 437.505/2401.250
DANDE 29 May 22:55:41 23:03:52 58° 78° (ENE) 23:10:48 436.750
VELOX 1 29 May 22:56:25 23:00:03 25° 70° (ENE) 23:03:41 145.980
ANTELSAT 29 May 23:11:38 23:15:58 76° 283° (WNW) 23:20:23 437.575/2403.000
PHONESAT 2.4 29 May 23:12:59 23:15:21 19° 358° (N) 23:17:43 2401.200-2431.200
GONETS M04 29 May 23:14:50 23:22:01 28° 287° (WNW) 23:29:12
Cosmos 2499 29 May 23:19:29 23:26:03 37° 284° (WNW) 23:33:04 435.465 / 435.565
POPSAT HIP 1 29 May 23:20:56 23:23:56 19° 96° (E) 23:26:56 437.405
QB50P1 29 May 23:21:02 23:24:05 19° 96° (E) 23:27:07 145.935-145.965
QB50P2 29 May 23:24:02 23:27:22 22° 96° (E) 23:30:41 145.880/145.840
UKube-1 29 May 23:26:12 23:30:10 36° 72° (ENE) 23:34:09 .
POLYITAN 1 29 May 23:26:28 23:29:50 23° 96° (E) 23:33:11 437.675
SO-50 29 May 23:30:45 23:35:37 77° 117° (ESE) 23:40:32 436.795
AISAT 29 May 23:31:55 23:36:22 71° 76° (ENE) 23:40:49 437.250
NANOSAT C BR1 29 May 23:37:26 23:41:07 29° 98° (E) 23:44:46 145.865
AIST 2 29 May 23:45:09 23:47:25 14° 252° (WSW) 23:49:41 435.215
50 SAT 29 May 23:59:56 00:03:20 39° 261° (W) 00:06:46 437.505
UNISAT 6 30 May 00:08:25 00:11:12 17° 291° (WNW) 00:14:02 437.425
DUCHIFAT 1 30 May 00:14:20 00:18:31 84° 100° (E) 00:22:41 145.980
TIGRISAT 30 May 00:15:19 00:17:48 15° 292° (WNW) 00:20:19 435.000
DX 1 30 May 00:17:41 00:21:48 40° 261° (W) 00:25:56 434.975-435.025
JAS-2 30 May 00:17:53 00:22:28 18° 90° (E) 00:26:42 435.910
CUBEBUG 1 30 May 00:18:22 00:22:20 32° 262° (W) 00:26:21 437.445
BUGSAT 1 30 May 00:21:48 00:25:37 41° 99° (E) 00:29:24 437.445
ESTCUBE 1 30 May 00:22:08 00:25:33 21° 265° (W) 00:28:58 437.505/2401.250
CUSAT 1 30 May 00:24:56 00:27:39 13° 282° (WNW) 00:30:11 437.405
VELOX 1 30 May 00:32:50 00:36:24 23° 264° (W) 00:39:59 145.980
SPROUT 30 May 00:32:56 00:37:11 61° 260° (W) 00:41:26 437.525
DANDE 30 May 00:39:42 00:45:56 25° 277° (W) 00:51:31 436.750
RS-15 30 May 00:42:04 00:52:30 31° 44° (NE) 01:02:51 29.354- 29.394
TISAT 1 30 May 00:47:27 00:51:30 46° 74° (ENE) 00:55:32 437.305
PHONESAT 2.4 30 May 00:49:54 00:52:40 28° 14° (NNE) 00:55:25 2401.200-2431.200
POPSAT HIP 1 30 May 00:56:09 00:59:40 26° 288° (WNW) 01:03:10 437.405
QB50P1 30 May 00:56:19 00:59:48 26° 289° (WNW) 01:03:16 145.935-145.965
QB50P2 30 May 00:59:45 01:03:02 23° 289° (WNW) 01:06:19 145.880/145.840
POLYITAN 1 30 May 01:02:15 01:05:30 22° 289° (WNW) 01:08:44 437.675
UKube-1 30 May 01:03:48 01:06:17 15° 265° (W) 01:08:46 .
SWISSCUBE 30 May 01:10:06 01:13:06 17° 67° (ENE) 01:16:06 437.505
NANOSAT C BR1 30 May 01:13:49 01:16:35 17° 291° (WNW) 01:19:21 145.865
SO-50 30 May 01:14:30 01:16:38 13° 313° (NW) 01:18:47 436.795
ITUPSAT 1 30 May 01:17:32 01:20:42 18° 67° (ENE) 01:23:52 437.325
Oscar 19 30 May 01:29:20 01:33:53 31° 98° (E) 01:38:24 437.125/150
BEESAT 30 May 01:38:11 01:42:19 30° 71° (ENE) 01:46:28 436.000
YUBILEINY 30 May 01:43:29 01:48:41 17° 68° (ENE) 01:53:51 435.215
BUGSAT 1 30 May 01:59:11 02:00:34 12° 293° (WNW) 02:01:58 437.445
JAS-2 30 May 02:00:58 02:08:04 62° 288° (WNW) 02:14:20 435.910
Gurwin Techsat 1B 30 May 02:13:21 02:18:12 35° 98° (E) 02:23:01 435.225
ITAMSAT 1 30 May 02:18:39 02:21:01 13° 93° (E) 02:23:23 435.822/435.867
TISAT 1 30 May 02:26:16 02:27:20 11° 267° (W) 02:28:24 437.305
PHONESAT 2.4 30 May 02:26:28 02:29:33 60° 210° (SSW) 02:32:37 2401.200-2431.200
Cosmos 2491 30 May 02:34:04 02:40:20 22° 82° (E) 02:46:34 435.465 / 435.565
SWISSCUBE 30 May 02:46:04 02:50:31 40° 261° (W) 02:55:00 437.505
ITUPSAT 1 30 May 02:53:47 02:58:11 38° 261° (W) 03:02:38 437.325
RS-15 30 May 02:53:57 03:06:18 79° 246° (WSW) 03:18:28 29.354- 29.394
Cosmos 2504 30 May 02:58:16 03:02:20 14° 68° (ENE) 03:06:26 435.465 / 435.565
ISS 30 May 03:04:18 03:07:08 27° 38° (NE) 03:09:57 145.825
Oscar 19 30 May 03:08:55 03:13:00 24° 291° (WNW) 03:17:05 437.125/150
BEESAT 30 May 03:16:27 03:20:03 21° 264° (W) 03:23:41 436.000
KKS-1 30 May 03:26:17 03:30:37 52° 74° (ENE) 03:34:57 437.445
AO-7 30 May 03:28:45 03:35:50 30° 98° (E) 03:42:51 29.400- 29.500
YUBILEINY 30 May 03:37:37 03:46:24 83° 266° (W) 03:55:13 435.215
Gurwin Techsat 1B 30 May 03:53:45 03:57:53 23° 292° (WNW) 04:02:00 435.225
STARS 30 May 03:54:27 03:58:45 54° 74° (ENE) 04:03:03 437.465
ITAMSAT 1 30 May 03:55:38 04:00:46 59° 286° (WNW) 04:05:54 435.822/435.867
MOZHAYETS 4 30 May 04:01:35 04:06:08 84° 261° (W) 04:10:43
Cosmos 2491 30 May 04:27:35 04:36:20 65° 279° (W) 04:45:06 435.465 / 435.565
JUGNU 30 May 04:35:42 04:39:27 17° 168° (SSE) 04:43:13 437.505
ISS 30 May 04:40:56 04:43:27 20° 231° (SW) 04:45:56 145.825
Cosmos 2504 30 May 04:48:06 04:56:45 84° 83° (E) 05:05:40 435.465 / 435.565
HORYU 2 30 May 04:48:38 04:52:23 27° 97° (E) 04:56:09 437.375
AO-85 30 May 04:56:39 05:02:02 67° 115° (ESE) 05:07:24 145.980
KKS-1 30 May 05:06:18 05:07:25 11° 267° (W) 05:08:31 437.445
RS-15 30 May 05:10:46 05:16:48 15° 262° (W) 05:22:49 29.354- 29.394
AO-7 30 May 05:20:44 05:28:44 52° 293° (WNW) 05:36:43 29.400- 29.500
NOAA 18 30 May 05:30:48 05:31:52 11° 92° (E) 05:32:58 137.9125
CUBESAT XI-V 30 May 05:34:28 05:39:08 78° 259° (W) 05:43:51 437.345
STARS 30 May 05:34:55 05:35:20 10° 267° (W) 05:35:45 437.465
YUBILEINY 30 May 05:38:52 05:41:46 12° 282° (WNW) 05:44:40 435.215
CUTE-I 30 May 05:52:42 05:55:54 16° 94° (E) 05:59:04 437.470
LilacSat-2 30 May 06:03:36 06:05:45 15° 94° (E) 06:07:54 437.200
BRITE-PL 30 May 06:13:56 06:18:10 29° 95° (E) 06:22:06 437.365/2234.400
JUGNU 30 May 06:23:14 06:27:51 23° 178° (S) 06:32:28 437.505
GOMX 1 30 May 06:24:56 06:27:26 15° 92° (E) 06:29:53 467.674
HORYU 2 30 May 06:25:23 06:28:46 22° 290° (WNW) 06:32:09 437.375
STRAND 1 30 May 06:25:31 06:29:42 26° 69° (ENE) 06:33:53 437.568
NOAA 15 30 May 06:30:19 06:35:33 59° 101° (E) 06:40:44 137.62
SRMSAT 30 May 06:34:47 06:38:21 16° 167° (SSE) 06:41:54 437.500
AO-85 30 May 06:39:30 06:42:58 17° 311° (NW) 06:46:24 145.980
Cosmos 2504 30 May 06:44:12 06:49:05 17° 279° (W) 06:54:04 435.465 / 435.565
Cubesat XI-IV 30 May 06:45:32 06:50:49 56° 101° (E) 06:56:05 437.490
DOVE 4 30 May 06:58:59 07:01:27 15° 93° (E) 07:03:51 437.250
NOAA 18 30 May 07:07:29 07:12:58 75° 285° (WNW) 07:18:27 137.9125
AIST 1 30 May 07:09:24 07:11:28 13° 74° (ENE) 07:13:33
CUTE-I 30 May 07:30:58 07:36:09 51° 287° (WNW) 07:41:19 437.470
HO-68 30 May 07:32:00 07:36:35 18° 94° (E) 07:41:10 435.675
PRISM 30 May 07:32:17 07:35:10 19° 69° (ENE) 07:38:05 437.425
GONETS M04 30 May 07:33:40 07:39:43 20° 70° (ENE) 07:45:44
LilacSat-2 30 May 07:36:49 07:40:03 27° 287° (WNW) 07:43:16 437.200
SEEDS 30 May 07:50:47 07:51:42 11° 92° (E) 07:52:37 437.485
M-CUBED/EXP-1 PRIME 30 May 07:51:10 07:52:05 11° 100° (E) 07:52:59 437.505
CANX-2 30 May 07:52:04 07:55:13 20° 95° (E) 07:58:21 2200.000
BRITE-PL 30 May 07:52:43 07:56:24 22° 292° (WNW) 07:59:54 437.365/2234.400
GOMX 1 30 May 08:01:36 08:05:43 35° 288° (WNW) 08:09:35 467.674
STRAND 1 30 May 08:04:21 08:08:43 29° 263° (W) 08:13:06 437.568
SO-50 30 May 08:07:27 08:11:00 21° 52° (NE) 08:14:28 436.795
JUGNU 30 May 08:11:59 08:16:17 20° 188° (S) 08:20:34 437.505
NOAA 15 30 May 08:12:01 08:14:46 14° 296° (WNW) 08:17:30 137.62
O/OREOS (USA 219) 30 May 08:12:25 08:16:25 31° 103° (ESE) 08:20:25 437.305
CUTE 1.7 + AOD 2 30 May 08:18:04 08:22:00 35° 98° (E) 08:25:56 437.475
SRMSAT 30 May 08:22:19 08:26:54 23° 177° (S) 08:31:27 437.500
Cubesat XI-IV 30 May 08:27:18 08:30:22 16° 295° (WNW) 08:33:25 437.490
AAUSAT CUBESAT 2 30 May 08:29:03 08:31:55 18° 95° (E) 08:34:46 437.432
COMPASS 1 30 May 08:29:06 08:32:28 23° 96° (E) 08:35:49 437.405
DOVE 4 30 May 08:35:28 08:39:15 31° 288° (WNW) 08:42:55 437.250
PCSat 30 May 08:37:01 08:42:18 57° 111° (ESE) 08:47:37 145.827
CINEMA 3 30 May 08:43:31 08:47:39 80° 102° (ESE) 08:51:50 145.822/145.860
AIST 1 30 May 08:45:13 08:49:13 37° 268° (W) 08:53:09
ZACube-1 30 May 08:56:03 08:57:41 12° 94° (E) 08:59:19 437.345
PRISM 30 May 09:06:43 09:10:15 27° 262° (W) 09:13:49 437.425
CUBEBUG 2 30 May 09:12:40 09:16:43 47° 100° (E) 09:20:51 437.445
Cosmos 2499 30 May 09:13:48 09:22:27 61° 81° (E) 09:31:11 435.465 / 435.565
AUBIESAT-1 30 May 09:14:08 09:17:19 46° 289° (WNW) 09:20:34 437.475
HO-68 30 May 09:17:36 09:24:43 68° 288° (WNW) 09:31:50 435.675
SEEDS 30 May 09:23:30 09:27:36 48° 285° (WNW) 09:31:41 437.485
M-CUBED/EXP-1 PRIME 30 May 09:23:55 09:26:41 26° 291° (WNW) 09:29:29 437.505
UNISAT 6 30 May 09:26:26 09:29:19 18° 69° (ENE) 09:32:11 437.425
CANX-2 30 May 09:27:23 09:31:00 27° 288° (WNW) 09:34:37 2200.000
GONETS M04 30 May 09:28:35 09:37:12 70° 267° (W) 09:45:48
FUNcube-1 30 May 09:30:31 09:34:17 30° 98° (E) 09:38:06 145.935
TIGRISAT 30 May 09:32:40 09:35:47 19° 70° (ENE) 09:38:51 435.000
UWE-3 30 May 09:34:42 09:38:52 60° 100° (E) 09:43:08 435.000/436.395/437.385
SO-50 30 May 09:47:22 09:51:33 34° 248° (WSW) 09:55:35 436.795
BEESAT 3 30 May 09:52:14 09:55:38 28° 112° (ESE) 09:59:03 437.485
O/OREOS (USA 219) 30 May 09:52:27 09:55:48 20° 297° (WNW) 09:59:09 437.305
CUTE 1.7 + AOD 2 30 May 09:54:58 09:57:30 16° 291° (WNW) 10:00:03 437.475
CUSAT 1 30 May 09:56:37 09:59:51 14° 79° (E) 10:03:20 437.405
JUGNU 30 May 10:02:41 10:04:38 12° 197° (SSW) 10:06:36 437.505
AAUSAT CUBESAT 2 30 May 10:03:46 10:07:22 28° 288° (WNW) 10:10:58 437.432
COMPASS 1 30 May 10:04:35 10:07:53 22° 289° (WNW) 10:11:10 437.405
ANTELSAT 30 May 10:06:00 10:10:15 52° 75° (ENE) 10:14:25 437.575/2403.000
DELFI C3 30 May 10:07:57 10:11:51 47° 99° (E) 10:15:44 145.870
Oscar 11 30 May 10:09:40 10:13:59 69° 283° (WNW) 10:18:17 145.826/435.025
SRMSAT 30 May 10:11:06 10:15:28 21° 187° (S) 10:19:50 437.500
HUMSAT D 30 May 10:12:00 10:15:16 22° 96° (E) 10:18:32 437.325/437.525
QB50P2 30 May 10:15:16 10:15:46 10° 66° (ENE) 10:16:15 145.880/145.840
POLYITAN 1 30 May 10:17:29 10:18:15 10° 66° (ENE) 10:19:00 437.675
PCSat 30 May 10:22:31 10:26:03 17° 308° (NW) 10:29:35 145.827
NANOSAT C BR1 30 May 10:26:54 10:28:53 13° 68° (ENE) 10:30:52 145.865
ZACube-1 30 May 10:30:05 10:34:06 43° 285° (WNW) 10:38:10 437.345
CUBEBUG 2 30 May 10:51:40 10:52:55 11° 292° (WNW) 10:54:11 437.445
BEESAT 2 30 May 11:00:33 11:04:30 73° 299° (WNW) 11:08:29 435.950
UNISAT 6 30 May 11:01:54 11:05:47 31° 262° (W) 11:09:37 437.425
DUCHIFAT 1 30 May 11:01:56 11:05:42 33° 73° (ENE) 11:09:29 145.980
FUNcube-1 30 May 11:07:29 11:10:17 17° 290° (WNW) 11:13:06 145.935
BUGSAT 1 30 May 11:08:06 11:10:51 17° 69° (ENE) 11:13:35 437.445
Cosmos 2499 30 May 11:08:12 11:14:53 25° 276° (W) 11:21:38 435.465 / 435.565
TIGRISAT 30 May 11:08:31 11:12:16 28° 263° (W) 11:15:58 435.000
AISAT 30 May 11:27:37 11:30:42 18° 95° (E) 11:33:45 437.250
BEESAT 3 30 May 11:30:32 11:33:19 18° 307° (NW) 11:36:07 437.485
50 SAT 30 May 11:33:52 11:36:49 22° 97° (E) 11:39:45 437.505
CUSAT 1 30 May 11:34:19 11:40:35 82° 279° (W) 11:48:19 437.405
POPSAT HIP 1 30 May 11:43:19 11:47:30 65° 258° (WSW) 11:51:43 437.405
QB50P1 30 May 11:43:24 11:47:36 64° 259° (W) 11:51:48 145.935-145.965
DELFI C3 30 May 11:45:32 11:46:14 10° 293° (WNW) 11:46:58 145.870
QB50P2 30 May 11:46:55 11:51:04 54° 260° (W) 11:55:13 145.880/145.840
HUMSAT D 30 May 11:47:25 11:50:46 23° 289° (WNW) 11:54:08 437.325/437.525
POLYITAN 1 30 May 11:49:25 11:53:33 52° 260° (W) 11:57:41 437.675
DANDE 30 May 11:57:49 12:03:09 73° 94° (E) 12:10:14 436.750
AIST 2 30 May 11:59:16 12:02:30 23° 111° (ESE) 12:05:46 435.215
NANOSAT C BR1 30 May 12:00:14 12:04:13 40° 261° (W) 12:08:12 145.865
SRMSAT 30 May 12:01:31 12:03:58 13° 196° (SSW) 12:06:26 437.500
JAS-2 30 May 12:06:07 12:12:52 41° 68° (ENE) 12:20:03 435.910
DX 1 30 May 12:10:03 12:14:14 46° 100° (E) 12:18:23 434.975-435.025
CUBEBUG 1 30 May 12:10:54 12:15:14 63° 101° (E) 12:19:30 437.445
ESTCUBE 1 30 May 12:17:43 12:22:15 71° 284° (WNW) 12:26:45 437.505/2401.250
SPROUT 30 May 12:23:37 12:27:22 30° 98° (E) 12:31:07 437.525
VELOX 1 30 May 12:26:18 12:30:44 88° 283° (WNW) 12:35:07 145.980
DUCHIFAT 1 30 May 12:38:56 12:41:26 15° 265° (W) 12:43:57 145.980
Oscar 19 30 May 12:41:52 12:46:21 30° 70° (ENE) 12:50:50 437.125/150
BUGSAT 1 30 May 12:42:15 12:45:58 30° 262° (W) 12:49:39 437.445
UKube-1 30 May 12:53:11 12:57:27 63° 285° (WNW) 13:01:42 .
AISAT 30 May 13:03:19 13:07:09 30° 288° (WNW) 13:10:58 437.250
50 SAT 30 May 13:07:47 13:10:21 18° 289° (WNW) 13:12:55 437.505
CUSAT 1 30 May 13:21:19 13:24:07 13° 298° (WNW) 13:27:03 437.405
Gurwin Techsat 1B 30 May 13:30:05 13:34:54 37° 71° (ENE) 13:39:44 435.225
ITAMSAT 1 30 May 13:32:48 13:35:18 14° 64° (ENE) 13:37:48 435.822/435.867
AO-85 30 May 13:34:42 13:37:39 17° 49° (NE) 13:40:26 145.980
AIST 2 30 May 13:37:27 13:40:51 24° 305° (NW) 13:44:16 435.215
DANDE 30 May 13:43:52 13:47:09 15° 298° (WNW) 13:50:48 436.750
BEESAT 30 May 13:45:09 13:46:16 11° 92° (E) 13:47:24 436.000
DX 1 30 May 13:48:09 13:49:58 12° 294° (WNW) 13:51:47 434.975-435.025
JAS-2 30 May 13:51:12 13:57:46 36° 265° (W) 14:04:48 435.910
SPROUT 30 May 14:00:14 14:03:04 18° 291° (WNW) 14:05:52 437.525
TISAT 1 30 May 14:11:10 14:15:11 49° 285° (WNW) 14:19:11 437.305
Oscar 19 30 May 14:21:18 14:25:36 26° 264° (W) 14:29:54 437.125/150
AO-7 30 May 14:23:29 14:30:14 29° 61° (ENE) 14:36:58 29.400- 29.500
YUBILEINY 30 May 14:39:06 14:45:19 22° 82° (E) 14:51:30 435.215
Cosmos 2491 30 May 14:43:38 14:52:08 53° 80° (E) 15:00:31 435.465 / 435.565
SWISSCUBE 30 May 14:50:14 14:55:03 72° 102° (ESE) 14:59:49 437.505
ITUPSAT 1 30 May 14:58:12 15:03:02 77° 102° (ESE) 15:07:50 437.325
RS-15 30 May 15:02:47 15:10:46 23° 101° (E) 15:18:58 29.354- 29.394
ITAMSAT 1 30 May 15:09:06 15:14:11 60° 259° (WSW) 15:19:19 435.822/435.867
Gurwin Techsat 1B 30 May 15:10:51 15:14:52 22° 264° (W) 15:18:56 435.225
AO-85 30 May 15:14:10 15:18:20 40° 248° (WSW) 15:22:10 145.980
BEESAT 30 May 15:19:38 15:24:21 60° 285° (WNW) 15:29:03 436.000
KKS-1 30 May 15:23:13 15:25:34 14° 94° (E) 15:27:53 437.445
HORYU 2 30 May 15:43:35 15:46:06 15° 67° (ENE) 15:48:37 437.375
STARS 30 May 15:49:55 15:52:07 14° 94° (E) 15:54:19 437.465
MOZHAYETS 4 30 May 16:01:17 16:05:25 32° 98° (E) 16:09:33
AO-7 30 May 16:14:24 16:22:28 56° 257° (WSW) 16:30:37 29.400- 29.500
YUBILEINY 30 May 16:32:43 16:41:17 63° 279° (W) 16:49:54 435.215
Cosmos 2491 30 May 16:41:26 16:48:23 28° 276° (W) 16:55:19 435.465 / 435.565
NOAA 18 30 May 16:51:48 16:54:47 15° 64° (ENE) 16:57:45 137.9125
KKS-1 30 May 16:58:07 17:02:14 39° 287° (WNW) 17:06:21 437.445
CUTE-I 30 May 17:10:28 17:13:54 18° 66° (ENE) 17:17:21 437.470
RS-15 30 May 17:10:30 17:21:44 78° 299° (WNW) 17:33:41 29.354- 29.394
HORYU 2 30 May 17:18:10 17:22:18 39° 261° (W) 17:26:26 437.375
BRITE-PL 30 May 17:19:09 17:23:48 27° 69° (ENE) 17:28:26 437.365/2234.400
Cosmos 2504 30 May 17:21:26 17:28:36 78° 94° (E) 17:36:11 435.465 / 435.565
STARS 30 May 17:24:32 17:28:36 39° 287° (WNW) 17:32:39 437.465
GOMX 1 30 May 17:28:21 17:31:13 15° 66° (ENE) 17:34:04 467.674
PCSat 30 May 17:30:18 17:34:07 19° 53° (NE) 17:37:56 145.827
CUBESAT XI-V 30 May 17:35:44 17:40:04 36° 98° (E) 17:44:22 437.345
MOZHAYETS 4 30 May 17:38:58 17:42:19 20° 291° (WNW) 17:45:41
NOAA 15 30 May 17:45:51 17:51:03 61° 74° (ENE) 17:56:17 137.62
DOVE 4 30 May 18:00:23 18:02:47 13° 67° (ENE) 18:05:09 437.250
Cubesat XI-IV 30 May 18:03:08 18:08:20 60° 74° (ENE) 18:13:34 437.490
LilacSat-2 30 May 18:13:41 18:17:27 71° 77° (ENE) 18:21:13 437.200
O/OREOS (USA 219) 30 May 18:26:42 18:30:34 28° 65° (ENE) 18:34:25 437.305
NOAA 18 30 May 18:29:30 18:34:52 60° 258° (WSW) 18:40:16 137.9125
M-CUBED/EXP-1 PRIME 30 May 18:35:13 18:35:21 10° 64° (ENE) 18:35:28 437.505
STRAND 1 30 May 18:41:58 18:44:04 12° 93° (E) 18:46:11 437.568
CUTE-I 30 May 18:48:26 18:53:31 48° 260° (W) 18:58:39 437.470
BRITE-PL 30 May 18:56:50 19:01:59 36° 263° (W) 19:07:12 437.365/2234.400
PHONESAT 2.4 30 May 18:57:09 18:59:16 17° 143° (SE) 19:01:24 2401.200-2431.200
GOMX 1 30 May 19:03:18 19:08:44 63° 260° (W) 19:14:05 467.674
CUTE 1.7 + AOD 2 30 May 19:07:48 19:10:09 15° 68° (ENE) 19:12:30 437.475
PCSat 30 May 19:12:32 19:17:47 51° 249° (WSW) 19:22:59 145.827
CUBESAT XI-V 30 May 19:13:58 19:17:08 18° 292° (WNW) 19:20:16 437.345
Cosmos 2504 30 May 19:19:07 19:22:53 14° 292° (WNW) 19:26:44 435.465 / 435.565
BEESAT 2 30 May 19:23:42 19:26:19 17° 53° (NE) 19:28:56 435.950
RS-15 30 May 19:28:04 19:36:28 22° 324° (NW) 19:45:14 29.354- 29.394
NOAA 15 30 May 19:28:49 19:31:08 13° 267° (W) 19:33:28 137.62
DOVE 4 30 May 19:34:48 19:39:59 61° 259° (W) 19:44:58 437.250
ISS 30 May 19:40:09 19:43:24 84° 318° (NW) 19:46:40 145.825
CINEMA 3 30 May 19:40:20 19:44:48 43° 75° (ENE) 19:49:06 145.822/145.860
HO-68 30 May 19:40:51 19:47:49 58° 71° (ENE) 19:54:47 435.675
Cubesat XI-IV 30 May 19:46:19 19:48:42 13° 267° (W) 19:51:07 437.490
BEESAT 3 30 May 19:50:28 19:54:24 61° 61° (ENE) 19:58:16 437.485
AUBIESAT-1 30 May 19:55:31 19:59:39 89° 85° (E) 20:03:30 437.475
M-CUBED/EXP-1 PRIME 30 May 20:05:25 20:09:33 53° 255° (WSW) 20:13:23 437.505
O/OREOS (USA 219) 30 May 20:06:30 20:09:43 20° 259° (W) 20:12:57 437.305
CUBEBUG 2 30 May 20:07:00 20:10:27 23° 71° (ENE) 20:13:51 437.445
SEEDS 30 May 20:10:22 20:14:29 62° 76° (ENE) 20:18:37 437.485
CANX-2 30 May 20:14:51 20:19:01 68° 259° (WSW) 20:23:14 2200.000
STRAND 1 30 May 20:18:29 20:23:33 60° 286° (WNW) 20:28:37 437.568
FUNcube-1 30 May 20:23:20 20:25:31 14° 69° (ENE) 20:27:42 145.935
UWE-3 30 May 20:27:48 20:31:25 27° 72° (ENE) 20:34:59 435.000/436.395/437.385
GONETS M04 30 May 20:29:03 20:36:04 28° 84° (E) 20:43:03
PHONESAT 2.4 30 May 20:32:39 20:35:46 64° 336° (NNW) 20:38:52 2401.200-2431.200
CUTE 1.7 + AOD 2 30 May 20:41:48 20:45:38 35° 262° (W) 20:49:31 437.475
AAUSAT CUBESAT 2 30 May 20:48:43 20:52:50 80° 260° (W) 20:57:00 437.432
COMPASS 1 30 May 20:49:51 20:53:55 59° 260° (W) 20:58:02 437.405
DELFI C3 30 May 20:50:55 20:53:14 15° 69° (ENE) 20:55:35 145.870
PRISM 30 May 20:52:00 20:56:05 54° 101° (E) 21:00:07 437.425
Oscar 11 30 May 20:59:46 21:03:54 49° 75° (ENE) 21:08:03 145.826/435.025
BEESAT 2 30 May 21:00:38 21:04:13 33° 247° (WSW) 21:07:47 435.950
AIST 1 30 May 21:09:14 21:13:31 52° 278° (W) 21:17:50
ISS 30 May 21:20:01 21:20:17 10° 332° (NNW) 21:20:34 145.825
